Regional Weather Roundup
Issued by NWS

Home | Current Version | Previous Version | Graphics & Text | Print | Product List | Glossary On
Versions: 1 2 3 4 5 6 7 8 9 10 11 12 13 14 15 16 17 18 19 20 21 22 23 24 25 26 27
000
ASUS45 KCYS 202210
RWRWY

WYOMING REGIONAL WEATHER ROUNDUP
NATIONAL WEATHER SERVICE CHEYENNE WY
300 PM MST SAT JAN 20 2018

NOTE:  "FAIR" INDICATES FEW OR NO CLOUDS BELOW 12,000 FEET
WITH NO SIGNIFICANT WEATHER AND/OR OBSTRUCTIONS TO VISIBILITY.

WYZ001-202300-
YELLOWSTONE NATIONAL PARK

CITY           SKY/WX    TMP DP  RH WIND       PRES   REMARKS
LK YELLOWSTONE   N/A     19  11  70 CALM      29.84R
W YELLOWSTONE  NOT AVBL

$$
WYZ002>013-054>058-071-098>099-202300-
NORTHERN WYOMING

CITY           SKY/WX    TMP DP  RH WIND       PRES   REMARKS
JACKSON        CLOUDY    26  14  60 N12       29.83R WCI  16
CODY           PTSUNNY   30  21  69 N8        29.87R WCI  22
GREYBULL       FAIR      33  26  75 NW3       29.88R
WORLAND        CLOUDY    32  24  72 SW5       29.87R WCI  27
SHERIDAN       CLOUDY    32  22  66 W5        29.91R WCI  27
BUFFALO        CLOUDY    29  15  56 N10       29.89R WCI  20
GILLETTE       CLOUDY    31  25  78 CALM      29.89R
HULETT         CLOUDY    32  27  80 NW3       29.90R
NEWCASTLE      LGT SNOW  32  30  93 NW7       29.89R VSB 3/4 WCI  26

$$
WYZ014>020-022>026-101>103-202300-
CENTRAL WYOMING

CITY           SKY/WX    TMP DP  RH WIND       PRES   REMARKS
BIG PINEY      LGT SNOW  25  18  74 N13       29.77R WCI  14
PINEDALE       LGT SNOW  25  19  80 NW13      29.76R WCI  13
DUBOIS         LGT SNOW  27  21  80 CALM      29.76R
LANDER         SNOW      25  23  92 E9        29.82R VSB 1/2 WCI  15
RIVERTON       LGT SNOW  26  24  92 E7        29.83S VSB 3/4 WCI  18
CASPER         SNOW      24  23  96 NE15      29.84S VSB 1/2 WCI  11
DOUGLAS        LGT SNOW  29  27  92 N8        29.86S FOG     WCI  21

$$
WYZ021-027>030-104>119-202300-
SOUTHERN WYOMING

CITY           SKY/WX    TMP DP  RH WIND       PRES   REMARKS
EVANSTON       FOG       21  19  92 N15       29.77R VSB 1   WCI   8
FORT BRIDGER   LGT SNOW  25  25  99 CALM      29.79R VSB 3/4
ROCK SPRINGS   LGT SNOW  27  23  85 NW7       29.73S VSB 3/4 WCI  19
DIXON          LGT SNOW  33  32  96 W6        29.73S WCI  27
RAWLINS        SNOW      29  26  89 N6        29.73R VSB 1/2 WCI  23
SARATOGA       LGT SNOW  30  30 100 CALM      29.72S
LARAMIE        CLOUDY    38  25  59 SE22      29.67F WCI  27
CHEYENNE       CLOUDY    30  28  92 N9        29.77S WCI  22
TORRINGTON     CLOUDY    34  31  88 N7        29.83S WCI  28

$$




USA.gov is the U.S. government's official web portal to all federal, state and local government web resources and services.